Redwood Falls, MN

6:44 PM CDT on May 22, 2017 (GMT -0500)
Redwood Falls Municipal

Weather History for KRWF - September, 2012

Change the Weather History Date:

Thursday, September 6, 2012

  Actual Average Record
Temperature  
Mean Temperature 66 °F -  
Max Temperature 82 °F 79 °F 101 °F (1976)
Min Temperature 50 °F 55 °F 33 °F (1996)
Cooling Degree Days 1    
Growing Degree Days 16 (Base 50)    
Moisture  
Dew Point 48 °F    
Average Humidity 55    
Maximum Humidity 83    
Minimum Humidity 24    
Precipitation  
Precipitation 0.01 in - - ()
Sea Level Pressure  
Sea Level Pressure 29.91 in    
Wind  
Wind Speed 5 mph (SSE)    
Max Wind Speed 14 mph    
Max Gust Speed 21 mph    
Visibility 10 miles    
Events Rain , Thunderstorm    
Averages and records for this station are not official NWS values.
T = Trace of Precipitation, MM = Missing Value Source: NWS Daily Summary

Daily Weather History Graph

Daily Weather History Graph

Search for Another Location

Airport or City:

Trip Planner

Search our weather history database for the weather conditions in past years. The results will help you decide how hot, cold, wet, or windy it might be!

Date:

Astronomy

Sep. 06, 2012 Rise Set
Actual Time 6:49 AM CDT 7:46 PM CDT
Civil Twilight 6:19 AM CDT 8:16 PM CDT
Nautical Twilight 5:44 AM CDT 8:51 PM CDT
Astronomical Twilight 5:06 AM CDT 9:28 PM CDT
Moon 10:41 PM CDT (9/6) 1:05 PM CDT (9/6)
Length of Visible Light 13h 56m
Length of Day
12h 57m
Waning Gibbous, 67% of the Moon is Illuminated
Sep 6
Waning Gibbous
Sep 8
Last Quarter
Sep 15
New
Sep 22
First Quarter
Sep 29
Full

Hourly Weather History & Observations

Time (CDT) Temp. Dew Point Humidity Pressure Visibility Wind Dir Wind Speed Gust Speed Precip Events Conditions
12:53 AM 55.9 °F 46.9 °F 72% 29.94 in 10.0 mi WSW 3.5 mph - N/A   Clear
1:53 AM 57.0 °F 46.0 °F 67% 29.95 in 10.0 mi West 4.6 mph - N/A   Clear
2:53 AM 52.0 °F 46.0 °F 80% 29.95 in 10.0 mi SW 4.6 mph - N/A   Clear
3:53 AM 54.0 °F 45.0 °F 72% 29.95 in 10.0 mi Calm Calm - N/A   Clear
4:53 AM 52.0 °F 45.0 °F 77% 29.96 in 10.0 mi WSW 3.5 mph - N/A   Clear
5:53 AM 51.1 °F 44.1 °F 77% 29.96 in 10.0 mi Calm Calm - N/A   Clear
6:53 AM 50.0 °F 44.1 °F 80% 29.97 in 10.0 mi Calm Calm - N/A   Clear
7:53 AM 52.0 °F 46.9 °F 83% 29.99 in 10.0 mi SSW 3.5 mph - N/A   Clear
8:53 AM 63.0 °F 48.0 °F 58% 29.98 in 10.0 mi SSW 6.9 mph - N/A   Clear
9:53 AM 71.1 °F 48.9 °F 45% 29.96 in 10.0 mi SSW 5.8 mph - N/A   Clear
10:53 AM 75.9 °F 46.9 °F 36% 29.96 in 10.0 mi SW 10.4 mph - N/A   Clear
11:53 AM 79.0 °F 43.0 °F 28% 29.93 in 10.0 mi Variable 4.6 mph - N/A   Clear
12:53 PM 80.1 °F 42.1 °F 26% 29.91 in 10.0 mi SSE 5.8 mph - N/A   Clear
1:53 PM 82.0 °F 44.1 °F 26% 29.87 in 10.0 mi South 12.7 mph - N/A   Clear
2:53 PM 82.0 °F 42.1 °F 24% 29.86 in 10.0 mi SSE 13.8 mph 20.7 mph N/A   Clear
3:53 PM 78.1 °F 45.0 °F 31% 29.86 in 10.0 mi NE 4.6 mph - N/A   Mostly Cloudy
4:32 PM 73.4 °F 48.2 °F 41% 29.89 in 10.0 mi NW 3.5 mph - N/A Thunderstorm Mostly Cloudy
4:53 PM 73.0 °F 54.0 °F 51% 29.87 in 10.0 mi East 5.8 mph - 0.01 in Rain Light Rain
5:53 PM 73.0 °F 53.1 °F 49% 29.87 in 10.0 mi ENE 3.5 mph - 0.00 in   Overcast
6:53 PM 72.0 °F 51.1 °F 48% 29.88 in 10.0 mi East 5.8 mph - N/A   Overcast
7:53 PM 71.1 °F 50.0 °F 47% 29.86 in 10.0 mi East 6.9 mph - N/A   Overcast
8:53 PM 69.1 °F 50.0 °F 51% 29.86 in 10.0 mi East 5.8 mph - N/A   Overcast
9:53 PM 66.0 °F 51.1 °F 59% 29.86 in 10.0 mi NNE 3.5 mph - N/A   Mostly Cloudy
10:53 PM 64.9 °F 53.1 °F 65% 29.86 in 10.0 mi NE 4.6 mph - N/A   Overcast
11:53 PM 64.0 °F 55.0 °F 73% 29.86 in 10.0 mi ENE 5.8 mph - N/A   Mostly Cloudy